Overview Statistics Trail Chart Weather Telemetry Raw packets
 

This is the latest recevied weather packets stored in our database for station/object IU1OLT-6. If no packets are shown the sender has not sent any weather packets the latest 10 day(s).

<< 26 27 28 29 30 31 32 >>
Time Temp. Humidity Pressure Rain* Wind** Luminosity Snow
1788043239 13.33° C 59% 1012.1 hPa 0 mm - - -
1788042279 13.33° C 58% 1012.1 hPa 0 mm - - -
1788041367 14.44° C 32% 1012 hPa 0 mm - - -
1788040455 14.44° C 40% 1012.1 hPa 0 mm - - -
1788039495 14.44° C 31% 1012.1 hPa 0 mm - - -
1788038583 14.44° C 28% 1012 hPa 0 mm - - -
1788037671 14.44° C 32% 1012.1 hPa 0 mm - - -
1788036711 13.89° C 35% 1012 hPa 0 mm - - -
1788035751 13.89° C 36% 1012.1 hPa 0 mm - - -
1788034791 13.33° C 35% 1012.2 hPa 0 mm - - -
1788033831 13.33° C 36% 1012.1 hPa 0 mm - - -
1788032727 13.89° C 34% 1012.1 hPa 0 mm - - -
1788031822 14.44° C 31% 1011.9 hPa 0 mm - - -
1788030903 13.89° C 36% 1011.7 hPa 0 mm - - -
1788029991 13.89° C 32% 1011.7 hPa 0 mm - - -
1788029031 14.44° C 38% 1011.5 hPa 0 mm - - -
1788028071 13.89° C 36% 1011.2 hPa 0 mm - - -
1788027111 14.44° C 36% 1011.2 hPa 0 mm - - -
1788026055 14.44° C 48% 1011.1 hPa 0 mm - - -
1788025095 14.44° C 48% 1010.9 hPa 0 mm - - -
1788024135 15° C 53% 1010.7 hPa 0 mm - - -
1788023175 15.56° C 45% 1010.8 hPa 0 mm - - -
1788022215 15° C 44% 1010.9 hPa 0 mm - - -
1788021255 15° C 46% 1010.7 hPa 0 mm - - -
1788020295 15.56° C 45% 1011 hPa 0 mm - - -

* Rain latest hour (hover to see other rain measurements)
** Current wind speed in m/s (hover to see current wind gust speed)